| time (UTC) | temp C | wind direction | speed KPH | gust KPH | rain 1hr cm | rain 24hr cm | rain mn cm | humidity % | barometer mb |
| 20260507140006 | 15 | 82 | 1.6 | 6.4 | 0.00 | 0.00 | 0.00 | 51 | 661.6 |
| 20260507135058 | 15 | 118 | 1.6 | 3.2 | 0.00 | 0.00 | 0.00 | 50 | 661.4 |
| 20260507134052 | 15 | 352 | 0.0 | 4.8 | 0.00 | 0.00 | 0.00 | 51 | 661.1 |
| 20260507133044 | 15 | 23 | 3.2 | 4.8 | 0.00 | 0.00 | 0.00 | 52 | 661.1 |
| 20260507132037 | 15 | 7 | 1.6 | 6.4 | 0.00 | 0.00 | 0.00 | 52 | 661.1 |
| 20260507131029 | 15 | 11 | 0.0 | 4.8 | 0.00 | 0.00 | 0.00 | 52 | 661.2 |
| 20260507130010 | 15 | 20 | 0.0 | 3.2 | 0.00 | 0.00 | 0.00 | 51 | 661.0 |
| 20260507125003 | 15 | 45 | 1.6 | 3.2 | 0.00 | 0.00 | 0.00 | 53 | 661.1 |
| 20260507124056 | 15 | 46 | 0.0 | 4.8 | 0.00 | 0.00 | 0.00 | 54 | 661.1 |
| 20260507123049 | 15 | 150 | 0.0 | 4.8 | 0.00 | 0.00 | 0.00 | 55 | 660.9 |
| 20260507122042 | 14 | 164 | 1.6 | 4.8 | 0.00 | 0.00 | 0.00 | 55 | 660.8 |
| 20260507121035 | 15 | 111 | 3.2 | 3.2 | 0.00 | 0.00 | 0.00 | 56 | 660.9 |
| 20260507120024 | 15 | 102 | 1.6 | 3.2 | 0.00 | 0.00 | 0.00 | 55 | 661.0 |
| 20260507115011 | 14 | 108 | 1.6 | 4.8 | 0.00 | 0.00 | 0.00 | 56 | 660.8 |
| 20260507114004 | 14 | 64 | 1.6 | 6.4 | 0.00 | 0.00 | 0.00 | 55 | 660.6 |
| 20260507113058 | 14 | 90 | 4.8 | 6.4 | 0.00 | 0.00 | 0.00 | 56 | 660.5 |
| 20260507112050 | 14 | 36 | 0.0 | 4.8 | 0.00 | 0.00 | 0.00 | 54 | 660.4 |
| 20260507111044 | 14 | 351 | 0.0 | 6.4 | 0.00 | 0.00 | 0.00 | 55 | 660.2 |
| 20260507110036 | 15 | 22 | 4.8 | 6.4 | 0.00 | 0.00 | 0.00 | 55 | 660.9 |
| 20260507105029 | 15 | 65 | 1.6 | 11.3 | 0.00 | 0.00 | 0.00 | 54 | 661.4 |
| 20260507104012 | 15 | 64 | 0.0 | 14.5 | 0.00 | 0.00 | 0.00 | 52 | 661.7 |
| 20260507103003 | 15 | 26 | 4.8 | 9.7 | 0.00 | 0.00 | 0.00 | 54 | 661.1 |
| 20260507102056 | 15 | 8 | 1.6 | 14.5 | 0.00 | 0.00 | 0.00 | 57 | 660.9 |
| 20260507101049 | 15 | 24 | 6.4 | 6.4 | 0.00 | 0.00 | 0.00 | 56 | 661.9 |
| 20260507100041 | 15 | 1 | 1.6 | 14.5 | 0.00 | 0.00 | 0.00 | 58 | 660.9 |
| 20260507095034 | 15 | 31 | 0.0 | 9.7 | 0.00 | 0.00 | 0.00 | 57 | 661.5 |
| 20260507094023 | 15 | 9 | 3.2 | 11.3 | 0.00 | 0.00 | 0.00 | 59 | 661.4 |
| 20260507093008 | 15 | 19 | 1.6 | 12.9 | 0.00 | 0.00 | 0.00 | 57 | 661.7 |
| 20260507092101 | 15 | 355 | 1.6 | 11.3 | 0.00 | 0.00 | 0.00 | 59 | 661.3 |
| 20260507091054 | 15 | 349 | 8.0 | 11.3 | 0.00 | 0.00 | 0.00 | 62 | 661.4 |
| 20260507090047 | 16 | 2 | 8.0 | 9.7 | 0.00 | 0.00 | 0.00 | 60 | 662.3 |
| 20260507085040 | 15 | 9 | 3.2 | 11.3 | 0.00 | 0.00 | 0.00 | 62 | 661.4 |
| 20260507084033 | 14 | 17 | 4.8 | 9.7 | 0.00 | 0.00 | 0.00 | 63 | 660.7 |
| 20260507083026 | 14 | 10 | 6.4 | 12.9 | 0.00 | 0.00 | 0.00 | 62 | 660.4 |
| 20260507082015 | 15 | 37 | 6.4 | 6.4 | 0.00 | 0.00 | 0.00 | 65 | 660.8 |
| 20260507081005 | 12 | 26 | 1.6 | 9.7 | 0.00 | 0.00 | 0.00 | 66 | 658.7 |
| 20260507080059 | 12 | 331 | 4.8 | 6.4 | 0.00 | 0.00 | 0.00 | 65 | 658.2 |
| 20260507075052 | 11 | 341 | 4.8 | 9.7 | 0.00 | 0.00 | 0.00 | 67 | 657.4 |
| 20260507074045 | 11 | 5 | 4.8 | 9.7 | 0.00 | 0.00 | 0.00 | 70 | 657.3 |
| 20260507073038 | 10 | 349 | 3.2 | 9.7 | 0.00 | 0.00 | 0.00 | 73 | 656.6 |
| 20260507072031 | 10 | 352 | 0.0 | 11.3 | 0.00 | 0.00 | 0.00 | 74 | 656.2 |
| 20260507071022 | 10 | 352 | 6.4 | 9.7 | 0.00 | 0.00 | 0.00 | 74 | 656.0 |
| 20260507070010 | 10 | 9 | 3.2 | 6.4 | 0.00 | 0.00 | 0.00 | 77 | 656.1 |
| 20260507065059 | 10 | 353 | 1.6 | 6.4 | 0.00 | 0.00 | 0.00 | 77 | 655.9 |
| 20260507064047 | 10 | 340 | 3.2 | 4.8 | 0.00 | 0.00 | 0.00 | 78 | 655.8 |
| 20260507063040 | 10 | 354 | 4.8 | 6.4 | 0.00 | 0.00 | 0.00 | 79 | 655.8 |
| 20260507062033 | 9 | 346 | 3.2 | 6.4 | 0.00 | 0.00 | 0.00 | 81 | 655.5 |
| 20260507061026 | 9 | 3 | 0.0 | 3.2 | 0.00 | 0.00 | 0.00 | 84 | 655.3 |
| 20260507060011 | 9 | 355 | 1.6 | 4.8 | 0.00 | 0.00 | 0.00 | 87 | 655.0 |
| 20260507055004 | 8 | 348 | 0.0 | 1.6 | 0.00 | 0.00 | 0.00 | 90 | 654.9 |
| 20260507054058 | 8 | 348 | 1.6 | 1.6 | 0.00 | 0.00 | 0.00 | 91 | 654.8 |
| 20260507053050 | 8 | 350 | 0.0 | 1.6 | 0.00 | 0.00 | 0.00 | 91 | 654.5 |
| 20260507052044 | 8 | 350 | 0.0 | 0.0 | 0.00 | 0.00 | 0.00 | 91 | 654.4 |
| 20260507051036 | 8 | 350 | 0.0 | 0.0 | 0.00 | 0.00 | 0.00 | 91 | 654.2 |
| 20260507050029 | 8 | 350 | 0.0 | 0.0 | 0.00 | 0.00 | 0.00 | 91 | 654.1 |
| 20260507045012 | 8 | 350 | 0.0 | 0.0 | 0.00 | 0.00 | 0.00 | 91 | 654.3 |
| 20260507044004 | 8 | 350 | 0.0 | 0.0 | 0.00 | 0.00 | 0.00 | 91 | 654.2 |
| 20260507043055 | 8 | 350 | 0.0 | 0.0 | 0.00 | 0.00 | 0.00 | 91 | 654.3 |
| 20260507042048 | 8 | 350 | 0.0 | 0.0 | 0.00 | 0.00 | 0.00 | 91 | 654.3 |
| 20260507041042 | 8 | 350 | 0.0 | 0.0 | 0.00 | 0.00 | 0.00 | 91 | 654.3 |
| 20260507040035 | 8 | 350 | 0.0 | 0.0 | 0.00 | 0.00 | 0.00 | 90 | 654.3 |
| 20260507035027 | 8 | 350 | 0.0 | 0.0 | 0.00 | 0.00 | 0.00 | 90 | 654.4 |
| 20260507034011 | 8 | 350 | 0.0 | 0.0 | 0.00 | 0.00 | 0.00 | 90 | 654.4 |
| 20260507033004 | 8 | 350 | 0.0 | 0.0 | 0.00 | 0.00 | 0.00 | 90 | 654.4 |
| 20260507032057 | 8 | 350 | 0.0 | 0.0 | 0.00 | 0.00 | 0.00 | 90 | 654.4 |
| 20260507031051 | 8 | 350 | 0.0 | 0.0 | 0.00 | 0.00 | 0.00 | 89 | 654.6 |
| 20260507030043 | 8 | 350 | 0.0 | 0.0 | 0.00 | 0.00 | 0.00 | 89 | 654.5 |
| 20260507025035 | 8 | 350 | 0.0 | 0.0 | 0.00 | 0.00 | 0.00 | 89 | 654.5 |
| 20260507024028 | 8 | 350 | 0.0 | 0.0 | 0.00 | 0.00 | 0.00 | 89 | 654.6 |
| 20260507023009 | 8 | 350 | 0.0 | 0.0 | 0.00 | 0.00 | 0.00 | 89 | 654.6 |
| 20260507022002 | 8 | 350 | 0.0 | 0.0 | 0.00 | 0.00 | 0.00 | 88 | 654.6 |
| 20260507021055 | 8 | 350 | 0.0 | 0.0 | 0.00 | 0.00 | 0.00 | 88 | 654.5 |
| 20260507020048 | 8 | 350 | 0.0 | 0.0 | 0.00 | 0.00 | 0.00 | 88 | 654.5 |
| 20260507015041 | 8 | 350 | 0.0 | 0.0 | 0.00 | 0.00 | 0.00 | 88 | 654.6 |
| 20260507014020 | 8 | 350 | 0.0 | 0.0 | 0.00 | 0.00 | 0.00 | 88 | 654.5 |
| 20260507013007 | 8 | 350 | 0.0 | 0.0 | 0.00 | 0.00 | 0.00 | 87 | 654.7 |
| 20260507012101 | 8 | 350 | 0.0 | 0.0 | 0.00 | 0.00 | 0.00 | 87 | 654.8 |
| 20260507011054 | 8 | 350 | 0.0 | 0.0 | 0.00 | 0.00 | 0.00 | 87 | 654.8 |
| 20260507010046 | 8 | 350 | 0.0 | 0.0 | 0.00 | 0.00 | 0.00 | 87 | 654.9 |
| 20260507005039 | 8 | 350 | 0.0 | 0.0 | 0.00 | 0.00 | 0.00 | 86 | 655.0 |
| 20260507004032 | 8 | 350 | 0.0 | 0.0 | 0.00 | 0.00 | 0.00 | 86 | 654.9 |
| 20260507003025 | 9 | 350 | 0.0 | 0.0 | 0.00 | 0.00 | 0.00 | 86 | 655.0 |
| 20260507002010 | 8 | 350 | 0.0 | 0.0 | 0.00 | 0.00 | 0.00 | 85 | 655.0 |
| 20260507001003 | 8 | 350 | 0.0 | 0.0 | 0.00 | 0.00 | 0.00 | 85 | 654.9 |
| 20260507000057 | 8 | 350 | 0.0 | 0.0 | 0.00 | 0.00 | 0.00 | 84 | 654.9 |
| 20260506235050 | 8 | 350 | 0.0 | 0.0 | 0.00 | 0.00 | 0.00 | 83 | 654.8 |
| 20260506234042 | 8 | 350 | 0.0 | 0.0 | 0.00 | 0.00 | 0.00 | 81 | 654.9 |
| 20260506233035 | 8 | 350 | 0.0 | 1.6 | 0.00 | 0.00 | 0.00 | 81 | 654.9 |
| 20260506232027 | 8 | 350 | 0.0 | 1.6 | 0.00 | 0.00 | 0.00 | 82 | 654.9 |
| 20260506231012 | 8 | 350 | 0.0 | 0.0 | 0.00 | 0.00 | 0.00 | 82 | 654.9 |
| 20260506230005 | 8 | 350 | 0.0 | 1.6 | 0.00 | 0.00 | 0.00 | 81 | 654.9 |
| 20260506225059 | 9 | 352 | 0.0 | 0.0 | 0.00 | 0.00 | 0.00 | 80 | 655.0 |
| 20260506224051 | 9 | 350 | 0.0 | 1.6 | 0.00 | 0.00 | 0.00 | 78 | 655.1 |
| 20260506223044 | 9 | 349 | 1.6 | 1.6 | 0.00 | 0.00 | 0.00 | 77 | 655.1 |
| 20260506222037 | 9 | 337 | 0.0 | 1.6 | 0.00 | 0.00 | 0.00 | 77 | 655.1 |
| 20260506221030 | 9 | 347 | 1.6 | 1.6 | 0.00 | 0.00 | 0.00 | 76 | 655.3 |
| 20260506220022 | 9 | 351 | 0.0 | 1.6 | 0.00 | 0.00 | 0.00 | 76 | 655.3 |
| 20260506215007 | 9 | 354 | 1.6 | 3.2 | 0.00 | 0.00 | 0.33 | 75 | 655.3 |
| 20260506214101 | 9 | 353 | 3.2 | 3.2 | 0.00 | 0.00 | 0.33 | 75 | 655.4 |
| 20260506213054 | 9 | 345 | 1.6 | 3.2 | 0.00 | 0.00 | 0.33 | 75 | 655.5 |
| 20260506212047 | 9 | 341 | 1.6 | 1.6 | 0.00 | 0.00 | 0.33 | 76 | 655.5 |
| 20260506211040 | 9 | 349 | 0.0 | 3.2 | 0.00 | 0.00 | 0.33 | 76 | 655.5 |
| 20260506210033 | 9 | 1 | 1.6 | 3.2 | 0.00 | 0.00 | 0.33 | 76 | 655.5 |
| 20260506205025 | 9 | 17 | 0.0 | 3.2 | 0.00 | 0.00 | 0.33 | 76 | 655.5 |
| 20260506204011 | 9 | 13 | 1.6 | 3.2 | 0.00 | 0.00 | 0.33 | 78 | 655.5 |
| 20260506203005 | 10 | 16 | 0.0 | 3.2 | 0.00 | 0.00 | 0.33 | 78 | 655.6 |
| 20260506202058 | 10 | 9 | 0.0 | 1.6 | 0.00 | 0.00 | 0.33 | 78 | 655.6 |
| 20260506201052 | 10 | 9 | 0.0 | 1.6 | 0.00 | 0.00 | 0.33 | 78 | 655.7 |
| 20260506200045 | 10 | 8 | 0.0 | 3.2 | 0.00 | 0.00 | 0.33 | 77 | 655.7 |
| 20260506195038 | 10 | 5 | 1.6 | 4.8 | 0.00 | 0.00 | 0.33 | 77 | 655.7 |
| 20260506194030 | 10 | 5 | 4.8 | 4.8 | 0.00 | 0.00 | 0.33 | 76 | 655.7 |
| 20260506193020 | 10 | 15 | 4.8 | 4.8 | 0.00 | 0.00 | 0.33 | 76 | 655.8 |
| 20260506192006 | 10 | 26 | 1.6 | 11.3 | 0.00 | 0.00 | 0.33 | 75 | 655.9 |
| 20260506191059 | 10 | 24 | 6.4 | 12.9 | 0.00 | 0.00 | 0.33 | 73 | 656.1 |
| 20260506190052 | 10 | 10 | 3.2 | 11.3 | 0.00 | 0.00 | 0.33 | 72 | 656.2 |
| 20260506185045 | 10 | 26 | 6.4 | 11.3 | 0.00 | 0.00 | 0.33 | 70 | 656.3 |
| 20260506184037 | 10 | 23 | 6.4 | 6.4 | 0.00 | 0.00 | 0.33 | 69 | 656.5 |
| 20260506183030 | 10 | 5 | 6.4 | 11.3 | 0.00 | 0.00 | 0.33 | 69 | 656.7 |
| 20260506182012 | 11 | 22 | 6.4 | 11.3 | 0.00 | 0.00 | 0.33 | 66 | 657.0 |
| 20260506181004 | 11 | 34 | 6.4 | 11.3 | 0.00 | 0.00 | 0.33 | 66 | 657.1 |
| 20260506180058 | 11 | 30 | 6.4 | 9.7 | 0.00 | 0.00 | 0.33 | 65 | 657.2 |
| 20260506175051 | 11 | 19 | 3.2 | 14.5 | 0.00 | 0.00 | 0.33 | 65 | 657.4 |
| 20260506174044 | 11 | 29 | 6.4 | 9.7 | 0.00 | 0.00 | 0.33 | 65 | 657.6 |
| 20260506173036 | 12 | 16 | 4.8 | 16.1 | 0.00 | 0.00 | 0.33 | 64 | 658.1 |
| 20260506172029 | 12 | 347 | 8.0 | 17.7 | 0.00 | 0.00 | 0.33 | 62 | 658.5 |
| 20260506171018 | 12 | 5 | 9.7 | 16.1 | 0.00 | 0.00 | 0.33 | 59 | 658.4 |
| 20260506170008 | 12 | 3 | 4.8 | 16.1 | 0.00 | 0.00 | 0.33 | 59 | 658.5 |
| 20260506165100 | 12 | 23 | 3.2 | 11.3 | 0.00 | 0.00 | 0.33 | 59 | 658.3 |
| 20260506164053 | 12 | 0 | 6.4 | 20.9 | 0.00 | 0.00 | 0.33 | 59 | 658.5 |
| 20260506163046 | 12 | 30 | 6.4 | 14.5 | 0.00 | 0.00 | 0.33 | 60 | 658.6 |
| 20260506162039 | 12 | 15 | 8.0 | 14.5 | 0.00 | 0.00 | 0.33 | 60 | 658.6 |
| 20260506161032 | 12 | 10 | 3.2 | 14.5 | 0.00 | 0.00 | 0.33 | 61 | 1009.5 |
| 20260506160025 | 13 | 11 | 11.3 | 14.5 | 0.00 | 0.00 | 0.33 | 60 | 1009.6 |
| 20260506155011 | 13 | 2 | 4.8 | 12.9 | 0.00 | 0.00 | 0.33 | 62 | 1009.6 |
| 20260506154004 | 13 | 355 | 6.4 | 16.1 | 0.00 | 0.00 | 0.33 | 60 | 1009.5 |
| 20260506153058 | 13 | 353 | 8.0 | 16.1 | 0.00 | 0.00 | 0.33 | 59 | 1009.4 |
| 20260506152050 | 13 | 1 | 6.4 | 9.7 | 0.00 | 0.00 | 0.33 | 61 | 1009.4 |
| 20260506151044 | 13 | 8 | 4.8 | 14.5 | 0.00 | 0.00 | 0.33 | 59 | 1009.4 |
| 20260506150036 | 14 | 3 | 4.8 | 14.5 | 0.00 | 0.00 | 0.33 | 57 | 1009.3 |
| 20260506145029 | 13 | 13 | 3.2 | 11.3 | 0.00 | 0.00 | 0.33 | 59 | 1009.2 |
| 20260506144021 | 13 | 9 | 1.6 | 9.7 | 0.00 | 0.00 | 0.33 | 57 | 1009.3 |
| 20260506143009 | 14 | 5 | 6.4 | 16.1 | 0.00 | 0.00 | 0.33 | 56 | 1009.3 |
| 20260506142103 | 14 | 3 | 4.8 | 9.7 | 0.00 | 0.00 | 0.33 | 58 | 1009.3 |
| 20260506141054 | 14 | 342 | 4.8 | 16.1 | 0.00 | 0.00 | 0.33 | 57 | 1009.3 |